Вернуться в каталог

CZ-6A DEB

АктивенPO
NORAD 60857·DEBRIS·🇨🇳 China

Запущен Aug 6, 2024 с Taiyuan Satellite Launch Center

Loading…

Ближайшие Пролёты (ближайшие 24 часа)

TLE

СвежийSource: Space-Track

Эпоха: Sep 14, 2026, 10:59 UTC

1 60857U 24140JL  26257.45782988  .00000566  00000-0  15720-3 0  9995
2 60857  88.9660 258.3145 0060034 340.2852  19.6031 14.44156040109627

Отслеживайте CZ-6A DEB в реальном времени с AllMySat

Download on the App Store